This demonstration page uses our WeatherBlox Daily Observations layout. Learn more.

Left ArrowRight Arrow

39.29038, -76.61219

Hourly Observations for May 14, 2017

Temp ( °F °C ) Dew Point ( °F °C ) Humidity (%) Winds ( mph kmh ) Pressure ( in mb ) Visibility ( mi km ) Precip ( " mm )
12:54 am 00:54 undefined 53 11.7 49 9.4 86 86 undefined N/A 29.81 1010 N/A N/A
1:54 am 01:54 undefined 52 11.1 49 9.4 89 89 undefined N/A 29.80 1009 N/A N/A
2:54 am 02:54 undefined 52 11.1 48 8.9 86 86 undefined N/A 29.80 1009 N/A N/A
3:54 am 03:54 undefined 50 10 48 8.9 93 93 undefined N/A 29.80 1009 N/A N/A
4:54 am 04:54 undefined 50 10 47 8.3 89 89 undefined N/A 29.79 1009 N/A N/A
5:54 am 05:54 undefined 49 9.4 47 8.3 93 93 undefined N/A 29.80 1009 N/A N/A
6:54 am 06:54 undefined 50 10 47 8.3 89 89 undefined N/A 29.81 1009 N/A N/A
7:54 am 07:54 undefined 53 11.7 48 8.9 83 83 undefined N/A 29.81 1010 N/A N/A
8:54 am 08:54 undefined 54 12.2 49 9.4 83 83 undefined N/A 29.78 1009 N/A N/A
9:54 am 09:54 undefined 60 15.6 51 10.6 72 72 undefined N/A 29.79 1009 N/A N/A
10:54 am 10:54 undefined 67 19.4 50 10 55 55 undefined N/A 29.78 1008 N/A N/A
11:54 am 11:54 undefined 71 21.7 50 10 47 47 undefined N/A 29.74 1007 N/A N/A
12:54 pm 12:54 undefined 73 22.8 50 10 44 44 undefined N/A 29.71 1006 N/A N/A
1:54 pm 13:54 undefined 75 23.9 48 8.9 39 39 undefined N/A 29.71 1006 N/A N/A
2:54 pm 14:54 undefined 76 24.4 47 8.3 36 36 undefined N/A 29.68 1005 N/A N/A
3:54 pm 15:54 undefined 77 25 43 6.1 30 30 undefined N/A 29.65 1004 N/A N/A
4:54 pm 16:54 undefined 76 24.4 41 5 29 29 undefined N/A 29.64 1004 N/A N/A
5:54 pm 17:54 undefined 76 24.4 38 3.3 25 25 undefined N/A 29.65 1004 N/A N/A
6:54 pm 18:54 undefined 74 23.3 38 3.3 27 27 undefined N/A 29.65 1004 N/A N/A
7:54 pm 19:54 undefined 73 22.8 39 3.9 29 29 undefined N/A 29.66 1004 N/A N/A
8:54 pm 20:54 undefined 71 21.7 41 5 34 34 undefined N/A 29.68 1005 N/A N/A
9:54 pm 21:54 undefined 70 21.1 43 6.1 38 38 undefined N/A 29.72 1006 N/A N/A
10:54 pm 22:54 undefined 67 19.4 25 -3.9 20 20 undefined N/A 29.75 1007 N/A N/A
11:54 pm 23:54 undefined 64 17.8 26 -3.3 24 24 undefined N/A 29.78 1009 N/A N/A

Powered by AerisWeather